When you browse on this site, cookies collect data to enhance your experience and personalize the content and advertising you see.
Visit our Privacy Policy to learn more. By continuing to use the site, you agree to this use of cookies and data.
  • In Germany
  • List of Countries
  • For 7 days
  • Water Temperature
  • Weather Map
  • Weather Widgets
  • user-avatar
    Login

    Hourly Weather Novyy Zavod

    Today, 22 October, Tuesday

    Time Temperature Precipitation Wind Pressure Humidity
    00:00 0°C° 0.1 mm 4 mps 750 mmHg 95%
    01:00 0°C° 0.1 mm 4 mps 750 mmHg 96%
    02:00 +1°C° 0 mm 5 mps 749 mmHg 95%
    03:00 +1°C° 0 mm 5 mps 748 mmHg 94%
    04:00 +1°C° 0 mm 4 mps 747 mmHg 92%
    05:00 +2°C° 0.4 mm 5 mps 747 mmHg 93%
    06:00 +2°C° 0.4 mm 5 mps 746 mmHg 93%
    07:00 +2°C° 0.4 mm 6 mps 745 mmHg 93%
    08:00 +3°C° 0.9 mm 6 mps 744 mmHg 92%
    09:00 +3°C° 0.9 mm 6 mps 744 mmHg 91%
    10:00 +4°C° 0.9 mm 7 mps 744 mmHg 90%
    11:00 +5°C° 0 mm 6 mps 744 mmHg 89%
    12:00 +5°C° 0 mm 6 mps 744 mmHg 87%
    13:00 +7°C° 0 mm 6 mps 744 mmHg 86%
    14:00 +6°C° 0 mm 5 mps 744 mmHg 86%
    15:00 +5°C° 0 mm 5 mps 744 mmHg 85%
    16:00 +4°C° 0 mm 4 mps 745 mmHg 85%
    17:00 +3°C° 0 mm 4 mps 745 mmHg 85%
    18:00 +1°C° 0 mm 4 mps 745 mmHg 85%
    19:00 0°C° 0 mm 4 mps 746 mmHg 86%
    20:00 +1°C° 0 mm 3 mps 746 mmHg 86%
    21:00 +1°C° 0 mm 3 mps 746 mmHg 87%
    22:00 +1°C° 0 mm 3 mps 746 mmHg 87%
    23:00 0°C° 0 mm 3 mps 746 mmHg 89%

    Tomorrow, 23 October, Wednesday

    Time Temperature Precipitation Wind Pressure Humidity
    00:00 0°C° 0 mm 3 mps 746 mmHg 90%
    01:00 -1°C° 0 mm 2 mps 746 mmHg 91%
    02:00 -1°C° 0 mm 2 mps 746 mmHg 91%
    03:00 -1°C° 0 mm 2 mps 747 mmHg 91%
    04:00 -1°C° 0 mm 2 mps 747 mmHg 91%
    05:00 -1°C° 0 mm 3 mps 747 mmHg 90%
    06:00 -1°C° 0 mm 3 mps 747 mmHg 89%
    07:00 -2°C° 0 mm 3 mps 747 mmHg 88%
    08:00 -1°C° 0 mm 3 mps 747 mmHg 85%
    09:00 0°C° 0 mm 3 mps 747 mmHg 82%
    10:00 -1°C° 0 mm 4 mps 747 mmHg 79%
    11:00 0°C° 0 mm 4 mps 746 mmHg 77%
    12:00 +1°C° 0 mm 4 mps 746 mmHg 74%
    13:00 +1°C° 0 mm 4 mps 746 mmHg 72%
    14:00 +1°C° 0 mm 4 mps 745 mmHg 75%
    15:00 +1°C° 0 mm 4 mps 745 mmHg 77%
    16:00 0°C° 0 mm 4 mps 745 mmHg 80%
    17:00 0°C° 0 mm 4 mps 744 mmHg 82%
    18:00 0°C° 0 mm 4 mps 744 mmHg 84%
    19:00 0°C° 0 mm 4 mps 743 mmHg 86%
    20:00 +1°C° 0 mm 5 mps 743 mmHg 87%
    21:00 +1°C° 0 mm 5 mps 742 mmHg 88%
    22:00 +1°C° 0 mm 5 mps 741 mmHg 89%
    23:00 +2°C° 0 mm 5 mps 741 mmHg 88%

    Day after tomorrow, 24 October, Thursday

    Time Temperature Precipitation Wind Pressure Humidity
    00:00 +3°C° 0 mm 5 mps 741 mmHg 87%
    01:00 +3°C° 0 mm 6 mps 740 mmHg 87%
    02:00 +5°C° 0.1 mm 5 mps 740 mmHg 88%
    03:00 +5°C° 0.1 mm 5 mps 741 mmHg 89%
    04:00 +5°C° 0.1 mm 5 mps 741 mmHg 89%
    05:00 +5°C° 0 mm 5 mps 741 mmHg 89%
    06:00 +4°C° 0 mm 4 mps 742 mmHg 89%
    07:00 +4°C° 0 mm 4 mps 743 mmHg 89%
    08:00 +4°C° 0 mm 4 mps 743 mmHg 86%
    09:00 +5°C° 0 mm 5 mps 744 mmHg 83%
    10:00 +5°C° 0 mm 5 mps 744 mmHg 80%
    11:00 +5°C° 0 mm 5 mps 745 mmHg 77%
    12:00 +5°C° 0 mm 5 mps 745 mmHg 75%
    13:00 +6°C° 0 mm 4 mps 745 mmHg 72%
    14:00 +5°C° 0 mm 4 mps 745 mmHg 75%
    15:00 +5°C° 0 mm 3 mps 746 mmHg 78%
    16:00 +5°C° 0 mm 2 mps 746 mmHg 81%
    17:00 +5°C° 0 mm 2 mps 746 mmHg 82%
    18:00 +4°C° 0 mm 2 mps 747 mmHg 83%
    19:00 +3°C° 0 mm 3 mps 747 mmHg 84%
    20:00 +3°C° 0 mm 3 mps 747 mmHg 85%
    21:00 +2°C° 0 mm 3 mps 748 mmHg 86%
    22:00 +2°C° 0 mm 3 mps 748 mmHg 87%
    23:00 +1°C° 0 mm 3 mps 748 mmHg 88%

    25 October, Friday

    Time Temperature Precipitation Wind Pressure Humidity
    00:00 +1°C° 0 mm 3 mps 748 mmHg 90%
    01:00 0°C° 0 mm 3 mps 748 mmHg 91%
    02:00 0°C° 0 mm 3 mps 748 mmHg 91%
    03:00 0°C° 0 mm 3 mps 748 mmHg 91%
    04:00 0°C° 0 mm 3 mps 748 mmHg 91%
    05:00 0°C° 0 mm 3 mps 748 mmHg 91%
    06:00 0°C° 0 mm 3 mps 748 mmHg 90%
    07:00 0°C° 0 mm 3 mps 749 mmHg 90%
    08:00 0°C° 0 mm 4 mps 749 mmHg 87%
    09:00 +1°C° 0 mm 4 mps 749 mmHg 85%
    10:00 +3°C° 0 mm 4 mps 749 mmHg 82%
    11:00 +3°C° 0 mm 4 mps 748 mmHg 81%
    12:00 +4°C° 0 mm 4 mps 748 mmHg 80%
    13:00 +4°C° 0 mm 4 mps 748 mmHg 79%
    14:00 +4°C° 0 mm 4 mps 748 mmHg 82%
    15:00 +3°C° 0 mm 4 mps 748 mmHg 86%
    16:00 +3°C° 0 mm 4 mps 748 mmHg 89%
    17:00 +3°C° 0 mm 3 mps 748 mmHg 88%
    18:00 +3°C° 0 mm 3 mps 748 mmHg 88%
    19:00 +3°C° 0 mm 3 mps 748 mmHg 87%
    20:00 +3°C° 0 mm 3 mps 748 mmHg 88%
    21:00 +4°C° 0 mm 4 mps 748 mmHg 88%
    22:00 +4°C° 0 mm 4 mps 748 mmHg 89%
    23:00 +4°C° 0 mm 4 mps 748 mmHg 89%

    26 October, Saturday

    Time Temperature Precipitation Wind Pressure Humidity
    00:00 +4°C° 0 mm 4 mps 748 mmHg 88%
    01:00 +4°C° 0 mm 4 mps 748 mmHg 88%
    02:00 +4°C° 0 mm 4 mps 749 mmHg 89%
    03:00 +3°C° 0 mm 4 mps 749 mmHg 90%
    04:00 +3°C° 0 mm 4 mps 750 mmHg 91%
    05:00 +3°C° 0 mm 4 mps 750 mmHg 91%
    06:00 +3°C° 0 mm 3 mps 750 mmHg 91%
    07:00 +3°C° 0 mm 3 mps 751 mmHg 90%
    08:00 +3°C° 0 mm 3 mps 751 mmHg 90%
    09:00 +5°C° 0 mm 2 mps 751 mmHg 90%
    10:00 +5°C° 0 mm 2 mps 752 mmHg 90%
    11:00 +6°C° 0 mm 2 mps 752 mmHg 88%
    12:00 +5°C° 0 mm 3 mps 752 mmHg 86%
    13:00 +7°C° 0 mm 3 mps 752 mmHg 84%
    14:00 +7°C° 0 mm 3 mps 751 mmHg 84%
    15:00 +5°C° 0 mm 3 mps 751 mmHg 84%
    16:00 +5°C° 0 mm 3 mps 751 mmHg 83%
    17:00 +5°C° 0 mm 4 mps 751 mmHg 83%
    18:00 +6°C° 0 mm 5 mps 750 mmHg 83%
    19:00 +6°C° 0 mm 5 mps 750 mmHg 83%
    20:00 +6°C° 0 mm 5 mps 749 mmHg 84%
    21:00 +5°C° 0 mm 6 mps 749 mmHg 85%
    22:00 +5°C° 0 mm 6 mps 748 mmHg 86%
    23:00 +7°C° 0 mm 5 mps 748 mmHg 86%

    27 October, Sunday

    Time Temperature Precipitation Wind Pressure Humidity
    00:00 +7°C° 0 mm 5 mps 747 mmHg 87%
    01:00 +7°C° 0 mm 5 mps 747 mmHg 88%
    02:00 +7°C° 0 mm 5 mps 747 mmHg 87%
    03:00 +7°C° 0 mm 5 mps 747 mmHg 86%
    04:00 +7°C° 0 mm 5 mps 747 mmHg 86%
    05:00 +7°C° 0 mm 4 mps 746 mmHg 86%
    06:00 +6°C° 0 mm 4 mps 746 mmHg 87%
    07:00 +6°C° 0 mm 4 mps 746 mmHg 88%
    08:00 +7°C° 0 mm 4 mps 746 mmHg 85%
    09:00 +8°C° 0 mm 4 mps 746 mmHg 83%
    10:00 +9°C° 0 mm 5 mps 746 mmHg 80%
    11:00 +10°C° 0 mm 5 mps 745 mmHg 75%
    12:00 +11°C° 0 mm 6 mps 745 mmHg 69%
    13:00 +13°C° 0 mm 6 mps 745 mmHg 64%
    14:00 +11°C° 0 mm 6 mps 745 mmHg 67%
    15:00 +11°C° 0 mm 6 mps 744 mmHg 69%
    16:00 +10°C° 0 mm 6 mps 744 mmHg 72%
    17:00 +10°C° 0 mm 6 mps 743 mmHg 74%
    18:00 +10°C° 0 mm 7 mps 743 mmHg 77%
    19:00 +9°C° 0 mm 7 mps 743 mmHg 79%
    20:00 +9°C° 0 mm 7 mps 743 mmHg 79%
    21:00 +9°C° 0 mm 7 mps 742 mmHg 78%
    22:00 +9°C° 0 mm 7 mps 742 mmHg 78%
    23:00 +8°C° 0 mm 6 mps 742 mmHg 78%

    28 October, Monday

    Time Temperature Precipitation Wind Pressure Humidity
    00:00 +8°C° 0 mm 6 mps 741 mmHg 77%
    01:00 +8°C° 0 mm 6 mps 741 mmHg 76%
    02:00 +7°C° 0 mm 6 mps 741 mmHg 75%
    03:00 +7°C° 0 mm 6 mps 740 mmHg 74%
    04:00 +7°C° 0 mm 6 mps 740 mmHg 73%
    05:00 +7°C° 0 mm 6 mps 739 mmHg 73%
    06:00 +7°C° 0 mm 6 mps 739 mmHg 72%
    07:00 +7°C° 0 mm 6 mps 739 mmHg 72%
    08:00 +8°C° 0 mm 6 mps 738 mmHg 70%
    09:00 +8°C° 0 mm 6 mps 738 mmHg 69%
    10:00 +9°C° 0 mm 7 mps 738 mmHg 67%
    11:00 +9°C° 0 mm 6 mps 737 mmHg 68%
    12:00 +9°C° 0 mm 6 mps 737 mmHg 68%
    13:00 +9°C° 0 mm 6 mps 737 mmHg 69%
    14:00 +9°C° 0 mm 6 mps 736 mmHg 70%
    15:00 +9°C° 0 mm 5 mps 736 mmHg 71%
    16:00 +9°C° 0 mm 5 mps 736 mmHg 72%
    17:00 +9°C° 0 mm 5 mps 736 mmHg 73%
    18:00 +8°C° 0 mm 5 mps 735 mmHg 75%
    19:00 +8°C° 0 mm 5 mps 735 mmHg 76%
    20:00 +8°C° 0 mm 5 mps 735 mmHg 78%
    21:00 +8°C° 0 mm 5 mps 735 mmHg 79%
    22:00 +7°C° 0 mm 5 mps 735 mmHg 81%
    23:00 +7°C° 0.3 mm 4 mps 735 mmHg 84%
    Show more